Cape Girardeau, MO

5:22 PM CST on December 14, 2019 (GMT -0600)
Cape Girardeau Regional

Weather History for KCGI - November, 2019

Change the Weather History Date:

Monday, November 11, 2019

  Actual Average Record
Temperature  
Mean Temperature 38 °F 49 °F  
Max Temperature 53 °F 60 °F 77 °F (2010)
Min Temperature 22 °F 38 °F 18 °F (1960)
Degree Days  
Heating Degree Days 27 16  
Month to date heating degree days 245 158  
Since 1 July heating degree days 506 461  
Cooling Degree Days 0 0  
Month to date cooling degree days 0 0  
Year to date cooling degree days 1775 1451  
Moisture  
Dew Point 31 °F    
Average Humidity 81    
Maximum Humidity 93    
Minimum Humidity 68    
Precipitation  
Precipitation 0.24 in 0.14 in 1.28 in (2004)
Month to date precipitation 2.08 1.48  
Year to date precipitation 57.59 39.60  
Sea Level Pressure  
Sea Level Pressure 30.20 in    
Wind  
Wind Speed 14 mph (North)    
Max Wind Speed 30 mph    
Max Gust Speed 40 mph    
Visibility 4 miles    
Events Rain , Snow    
T = Trace of Precipitation, MM = Missing Value Source: NWS Daily Summary

Daily Weather History Graph

Daily Weather History Graph

Search for Another Location

Airport or City:

Astronomy

Nov. 11, 2019 Rise Set
Actual Time 6:32 AM CST 4:51 PM CST
Civil Twilight 6:05 AM CST 5:18 PM CST
Nautical Twilight 5:34 AM CST 5:49 PM CST
Astronomical Twilight 5:03 AM CST 6:20 PM CST
Moon 4:44 PM CST (11/11) 5:26 AM CST (11/11)
Length of Visible Light 11h 13m
Length of Day
10h 18m
Waxing Gibbous, 99% of the Moon is Illuminated
Nov 11
Waxing Gibbous
Nov 12
Full
Nov 19
Last Quarter
Nov 26
New
Dec 4
First Quarter

Hourly Weather History & Observations

Time (CST) Temp. Windchill Dew Point Humidity Pressure Visibility Wind Dir Wind Speed Gust Speed Precip Events Conditions
12:53 AM 50.0 °F - 43.0 °F 77% 30.00 in 10.0 mi South 4.6 mph - N/A   Clear
1:53 AM 48.0 °F - 42.1 °F 80% 30.00 in 10.0 mi South 4.6 mph - N/A   Clear
2:53 AM 45.0 °F 43.5 °F 42.1 °F 90% 30.00 in 10.0 mi East 3.5 mph - N/A   Scattered Clouds
3:53 AM 46.0 °F - 44.1 °F 93% 29.99 in 10.0 mi Calm Calm - N/A   Mostly Cloudy
4:53 AM 45.0 °F 41.2 °F 42.1 °F 90% 30.02 in 7.0 mi NW 6.9 mph - N/A   Clear
5:31 AM 44.1 °F 41.5 °F 39.9 °F 85% 30.02 in 7.0 mi NNW 4.6 mph - N/A   Scattered Clouds
5:53 AM 44.1 °F 41.5 °F 39.0 °F 82% 30.01 in 7.0 mi North 4.6 mph - N/A   Partly Cloudy
6:16 AM 43.0 °F 40.3 °F 39.9 °F 89% 30.01 in 6.0 mi NNE 4.6 mph - N/A   Scattered Clouds
6:25 AM 44.1 °F 40.8 °F 39.9 °F 85% 30.03 in 6.0 mi NW 5.8 mph - N/A   Mostly Cloudy
6:39 AM 45.0 °F 41.2 °F 39.9 °F 82% 30.05 in 5.0 mi NW 6.9 mph - N/A   Haze
6:53 AM 45.0 °F 40.6 °F 39.9 °F 82% 30.05 in 4.0 mi NNW 8.1 mph - N/A   Haze
7:53 AM 44.1 °F 38.1 °F 39.9 °F 85% 30.06 in 3.0 mi North 11.5 mph - N/A   Overcast
8:53 AM 45.0 °F 39.7 °F 39.0 °F 80% 30.07 in 4.0 mi North 10.4 mph - N/A   Haze
9:53 AM 44.1 °F 37.4 °F 37.9 °F 79% 30.11 in 5.0 mi NNW 13.8 mph - N/A   Haze
10:25 AM 42.1 °F 33.6 °F 37.9 °F 85% 30.12 in 2.5 mi NNW 18.4 mph 25.3 mph 0.01 in Rain Light Rain
10:39 AM 42.1 °F 34.2 °F 37.9 °F 85% 30.12 in 3.0 mi North 16.1 mph 26.5 mph 0.02 in Rain Light Rain
10:53 AM 42.1 °F 33.9 °F 37.9 °F 85% 30.13 in 4.0 mi North 17.3 mph 28.8 mph 0.02 in   Overcast
11:05 AM 42.1 °F 33.9 °F 37.0 °F 82% 30.12 in 5.0 mi North 17.3 mph 26.5 mph N/A   Haze
11:37 AM 41.0 °F 33.1 °F 37.0 °F 86% 30.12 in 5.0 mi North 15.0 mph 26.5 mph 0.00 in Rain Light Rain
11:53 AM 39.9 °F 32.5 °F 36.0 °F 86% 30.13 in 5.0 mi North 12.7 mph 26.5 mph 0.02 in Rain Light Rain
12:01 PM 39.9 °F 31.4 °F 36.0 °F 86% 30.13 in 2.5 mi North 16.1 mph 28.8 mph 0.02 in Rain Rain
12:04 PM 39.9 °F 31.8 °F 36.0 °F 86% 30.13 in 3.0 mi North 15.0 mph 28.8 mph 0.03 in Rain Rain
12:34 PM 39.0 °F 29.9 °F 35.1 °F 86% 30.12 in 6.0 mi North 17.3 mph 24.2 mph 0.05 in Rain Light Rain
12:53 PM 39.0 °F 29.0 °F 34.0 °F 82% 30.15 in 9.0 mi North 20.7 mph 29.9 mph 0.06 in Rain Light Rain
1:17 PM 37.9 °F 27.6 °F 34.0 °F 86% 30.14 in 1.8 mi North 20.7 mph 28.8 mph 0.02 in Snow Light Snow
1:26 PM 37.0 °F 26.4 °F 34.0 °F 89% 30.14 in 3.0 mi North 20.7 mph 28.8 mph 0.02 in Snow Light Snow
1:53 PM 36.0 °F 24.2 °F 30.9 °F 82% 30.18 in 8.0 mi North 24.2 mph 35.7 mph 0.02 in   Overcast
2:27 PM 34.0 °F 22.7 °F 30.0 °F 85% 30.19 in 2.5 mi North 19.6 mph 31.1 mph 0.00 in Snow Light Snow
2:46 PM 34.0 °F 22.7 °F 30.0 °F 85% 30.19 in 1.2 mi North 19.6 mph 29.9 mph 0.03 in Rain Rain
2:53 PM 33.1 °F 20.9 °F 28.9 °F 85% 30.20 in 1.2 mi North 21.9 mph 33.4 mph 0.06 in Rain Rain
2:59 PM 33.1 °F 21.2 °F 28.9 °F 85% 30.20 in 2.0 mi North 20.7 mph 34.5 mph 0.01 in Snow Light Snow
3:03 PM 33.1 °F 21.5 °F 28.9 °F 85% 30.20 in 3.0 mi North 19.6 mph 34.5 mph 0.01 in Snow Light Snow
3:46 PM 30.9 °F 17.5 °F 26.1 °F 82% 30.23 in 3.0 mi North 24.2 mph 33.4 mph 0.02 in Snow Light Snow
3:53 PM 30.9 °F 18.7 °F 26.1 °F 82% 30.25 in 3.0 mi North 19.6 mph 33.4 mph 0.03 in Snow Light Snow
4:35 PM 30.0 °F 18.7 °F 26.1 °F 85% 30.27 in 2.5 mi North 16.1 mph 29.9 mph 0.00 in Snow Light Snow
4:46 PM 30.0 °F 17.9 °F 25.0 °F 82% 30.27 in 4.0 mi North 18.4 mph 28.8 mph 0.01 in Snow Light Snow
4:53 PM 30.0 °F 19.1 °F 26.1 °F 85% 30.29 in 3.0 mi North 15.0 mph 27.6 mph 0.01 in Snow Light Snow
4:57 PM 30.0 °F 19.1 °F 26.1 °F 85% 30.28 in 1.8 mi North 15.0 mph 23.0 mph 0.00 in Snow Light Snow
5:02 PM 30.0 °F 17.9 °F 26.1 °F 85% 30.28 in 1.2 mi North 18.4 mph 25.3 mph 0.00 in Snow Light Snow
5:11 PM 28.9 °F 17.7 °F 26.1 °F 89% 30.29 in 0.8 mi North 15.0 mph 25.3 mph 0.01 in Snow Light Snow
5:20 PM 28.9 °F 14.8 °F 25.0 °F 85% 30.29 in 1.2 mi NNE 24.2 mph 33.4 mph 0.01 in Snow Light Snow
5:27 PM 28.9 °F 15.4 °F 25.0 °F 85% 30.29 in 3.0 mi North 21.9 mph 32.2 mph 0.01 in Snow Light Snow
5:36 PM 28.9 °F 17.3 °F 24.1 °F 82% 30.30 in 7.0 mi North 16.1 mph 29.9 mph 0.01 in Snow Light Snow
5:53 PM 28.9 °F 16.9 °F 24.1 °F 82% 30.32 in 5.0 mi North 17.3 mph 26.5 mph 0.01 in   Haze
6:10 PM 28.0 °F 17.0 °F 25.0 °F 88% 30.33 in 2.0 mi North 13.8 mph - 0.00 in Snow Light Snow
6:15 PM 28.0 °F 17.0 °F 25.0 °F 88% 30.33 in 1.8 mi North 13.8 mph - 0.00 in Snow Light Snow
6:33 PM 28.0 °F 14.3 °F 23.0 °F 81% 30.34 in 3.0 mi North 21.9 mph 28.8 mph 0.00 in Snow Light Snow
6:53 PM 27.0 °F 14.3 °F 23.0 °F 85% 30.37 in 2.0 mi North 17.3 mph 31.1 mph 0.00 in Snow Light Snow
7:05 PM 27.0 °F 13.5 °F 21.9 °F 81% 30.37 in 4.0 mi North 19.6 mph 29.9 mph 0.00 in Snow Light Snow
7:13 PM 27.0 °F 14.3 °F 21.9 °F 81% 30.37 in 2.5 mi North 17.3 mph 27.6 mph 0.00 in Snow Light Snow
7:47 PM 26.6 °F 13.4 °F 21.2 °F 80% 30.39 in 1.5 mi North 18.4 mph 26.5 mph 0.01 in Snow Light Snow
7:53 PM 27.0 °F 14.3 °F 21.9 °F 81% 30.40 in 1.0 mi North 17.3 mph 26.5 mph 0.01 in Snow Light Snow
8:13 PM 26.1 °F 10.7 °F 21.0 °F 81% 30.40 in 3.0 mi North 25.3 mph 39.1 mph 0.00 in Snow Light Snow
8:53 PM 26.1 °F 12.7 °F 19.9 °F 78% 30.43 in 10.0 mi North 18.4 mph 27.6 mph 0.00 in   Overcast
9:53 PM 26.1 °F 13.1 °F 19.0 °F 75% 30.45 in 10.0 mi North 17.3 mph 33.4 mph N/A   Overcast
10:53 PM 24.1 °F 10.1 °F 16.0 °F 71% 30.47 in 10.0 mi North 18.4 mph 33.4 mph N/A   Overcast
11:53 PM 21.9 °F 5.5 °F 12.0 °F 66% 30.49 in 10.0 mi North 24.2 mph 31.1 mph N/A   Overcast